Meteo Giornale » Osservazioni meteo Slovenia » Maribor-Slivnica

ore: 04:00 - Osservazioni Meteo Maribor-Slivnica
Lat. 46° 29' N Lon. 15° 41' E Alt. 264 metri s.l.m.

coperto_pioggia

17 °C

Pioggia

Temp. 24 Ore

15 °C

28 °C

Nord-Ovest

9.3 Km/h

Dew point 15 °C

Umidità 88 %

Visibilità  7 Km

Il sole sorge alle ore 06:18

Il sole tramonta alle ore 19:35

Data e Ora Cielo e Fenomeni T °C DP °C Um. % Pres. hPa Vis. km Vento km/h
Oggi h: 04:00 coperto_pioggia Pioggia 17 15 88 1022 7 NO 9.3
Oggi h: 03:30 coperto_pioggia Pioggia 19 14 72 1022 10 N 5.5
Oggi h: 03:00 sereno Sereno 17 14 82 1021 10 N/NO 7.4
Oggi h: 02:30 sereno Sereno 16 14 87 1021 10 N 5.5
Oggi h: 02:00 sereno Sereno 15 14 93 1021 10 N 7.4
Oggi h: 01:30 sereno Sereno 16 14 87 1021 10 N 5.5
Oggi h: 01:00 sereno Sereno 16 14 87 1021 10 N 1.8
Oggi h: 00:30 sereno Sereno 16 14 87 1021 10 N 3.7
Oggi h: 00:00 sereno Sereno 18 13 72 1021 10 N 3.7
Ieri h: 23:30 sereno Sereno 17 14 82 1021 10 N 3.7
Ieri h: 23:00 sereno Sereno 18 13 72 1021 10 N 3.7
Ieri h: 22:30 sereno Sereno 18 14 77 1021 10 N 1.8
Ieri h: 22:00 sereno Sereno 18 14 77 1021 10 N 3.7
Ieri h: 21:30 sereno Sereno 20 13 64 1020 10 N 1.8
Ieri h: 21:00 sereno Sereno 19 14 72 1020 10 N 3.7
Ieri h: 20:30 sereno Sereno 21 15 68 1020 10 N 1.8
Ieri h: 20:00 poco_nuvoloso Poco Nuvoloso 23 14 56 1020 10 E/SE 7.4
Ieri h: 19:30 poco_nuvoloso Poco Nuvoloso 25 12 44 1019 10 E/SE 7.4
Ieri h: 19:00 poco_nuvoloso Poco Nuvoloso 26 12 41 1019 10 E/SE 11.1
Ieri h: 18:30 poco_nuvoloso Poco Nuvoloso 27 12 39 1019 10 S/SE 9.3
Ieri h: 18:00 poco_nuvoloso Poco Nuvoloso 27 11 36 1019 10 S 11.1
Ieri h: 17:30 poco_nuvoloso Poco Nuvoloso 27 11 36 1020 10 S 13
Ieri h: 17:00 nuvoloso Nuvoloso 27 11 36 1020 10 S/SE 7.4
Ieri h: 16:30 nuvoloso Nuvoloso 28 12 37 1020 10 SE 7.4
Ieri h: 16:00 nuvoloso Nuvoloso 27 12 39 1020 10 N 5.5
Ieri h: 15:30 nuvoloso Nuvoloso 27 12 39 1020 10 S 11.1
Ieri h: 15:00 nuvoloso Nuvoloso 27 14 44 1021 10 N 5.5
Ieri h: 14:30 poco_nuvoloso Poco Nuvoloso 27 12 39 1021 10 N 5.5
Ieri h: 14:00 poco_nuvoloso Poco Nuvoloso 27 12 39 1021 10 N 5.5
Ieri h: 13:30 poco_nuvoloso Poco Nuvoloso 26 11 39 1021 10 S/SE 9.3
Ieri h: 13:00 poco_nuvoloso Poco Nuvoloso 25 13 47 1022 10 SE 9.3
Ieri h: 12:30 poco_nuvoloso Poco Nuvoloso 24 14 53 1022 10 S/SE 9.3
Ieri h: 12:00 poco_nuvoloso Poco Nuvoloso 23 16 64 1022 10 N 5.5
Ieri h: 11:30 sereno Sereno 22 16 68 1022 10 N 1.8
Ieri h: 11:00 sereno Sereno 22 16 68 1022 10 N 1.8
Ieri h: 10:30 molto_nuvoloso Molto Nuvoloso 21 16 73 1022 10 N 1.8
Ieri h: 10:00 molto_nuvoloso Molto Nuvoloso 19 17 88 1022 10 N 3.7
Ieri h: 09:30 molto_nuvoloso Molto Nuvoloso 18 16 88 1022 10 N 1.8
Ieri h: 09:00 coperto_pioggia Pioggia 18 17 93 1021 10 N 1.8
Ieri h: 08:30 coperto_pioggia Pioggia 18 16 88 1021 10 N 0
Ieri h: 08:00 molto_nuvoloso Molto Nuvoloso 17 16 93 1021 10 N 1.8
Ieri h: 07:30 sereno Sereno 17 16 93 1021 10 N 0
Ieri h: 07:00 nuvoloso_piovaschi Pioggia 17 16 93 1021 10 N 1.8
Ieri h: 06:30 sereno Sereno 17 16 93 1021 10 N 0
Ieri h: 06:00 nuvoloso_piovaschi Pioggia 17 16 93 1020 10 N 3.7
Ieri h: 05:30 nuvoloso_piovaschi Pioggia 17 16 93 1020 10 N 1.8
Ieri h: 05:00 sereno Sereno 17 16 93 1020 10 N 1.8